ETD81C EGLL-OMAA

Flight info

Callsign ETD81C
Flight time N/A
Altitude 37000
Route DET L6 DVR UL9 KONAN DCT KOK UL607 SPI DCT BOMBI DCT TENLO DCT LAMSI DCT SASAL DCT BABIT DCT NISVA DCT RODIP/N0462F390 DCT BELGI UT38 VESAR L620 BALMA UR655 CAK UN310 LATEB N310 BASEM R785 RASLI P559 TRF R23 NEVOL N318 TAMRO T503 KSA N687 KINIB Z511 GISRA L681 ORLEK DCT KUPRO/N0492F350 N300 KAXOB Q415 UKILI
Aircraft A343/H-SDE2E3FGHIJ4J5M1RWXY/LB1D1

Departure

Time N/A
Airport London Heathrow Airport (EGLL)

Arrival

Time 2026-05-06 20:46
Airport Zayed International Airport (OMAA)
Time Latitude Longitude Altitude Speed Heading
2026-05-06 20:20 25.06274 52.74827 38820 ft 491 kts 114°
2026-05-06 20:21 25.03124 52.86746 38823 ft 493 kts 105°
2026-05-06 20:21 25.01481 52.94091 38812 ft 492 kts 105°
2026-05-06 20:22 24.99839 53.01423 38814 ft 492 kts 105°
2026-05-06 20:22 24.98181 53.08746 38762 ft 491 kts 105°
2026-05-06 20:23 24.97356 53.12355 38167 ft 486 kts 105°
2026-05-06 20:23 24.96524 53.15968 37068 ft 486 kts 105°
2026-05-06 20:23 24.95887 53.18720 36137 ft 487 kts 105°
2026-05-06 20:23 24.95050 53.22337 34896 ft 488 kts 105°
2026-05-06 20:24 24.94206 53.25981 33366 ft 486 kts 105°
2026-05-06 20:24 24.93375 53.29570 31484 ft 486 kts 105°
2026-05-06 20:24 24.92537 53.33192 29448 ft 487 kts 105°
2026-05-06 20:24 24.91705 53.36785 27384 ft 487 kts 105°
2026-05-06 20:25 24.90776 53.40345 26124 ft 475 kts 112°
2026-05-06 20:25 24.89381 53.43624 25766 ft 478 kts 117°
2026-05-06 20:25 24.88362 53.45796 25670 ft 481 kts 118°
2026-05-06 20:25 24.86792 53.49033 25222 ft 475 kts 119°
2026-05-06 20:26 24.85214 53.52193 24619 ft 467 kts 120°
2026-05-06 20:26 24.83642 53.55294 24026 ft 460 kts 120°
2026-05-06 20:26 24.82086 53.58348 23425 ft 454 kts 120°
2026-05-06 20:26 24.80558 53.61346 22830 ft 448 kts 120°
2026-05-06 20:27 24.79048 53.64310 22238 ft 441 kts 120°
2026-05-06 20:27 24.77555 53.67244 21645 ft 436 kts 119°
2026-05-06 20:27 24.76089 53.70133 21055 ft 430 kts 119°
2026-05-06 20:27 24.74649 53.72979 20481 ft 425 kts 119°
2026-05-06 20:28 24.73217 53.75799 19908 ft 419 kts 119°
2026-05-06 20:28 24.71801 53.78579 19328 ft 414 kts 119°
2026-05-06 20:28 24.70395 53.81335 18774 ft 410 kts 119°
2026-05-06 20:28 24.69003 53.84065 18219 ft 405 kts 119°
2026-05-06 20:29 24.67645 53.86727 17648 ft 400 kts 119°
2026-05-06 20:29 24.66303 53.89357 17118 ft 396 kts 119°
2026-05-06 20:29 24.64950 53.92008 16569 ft 391 kts 119°
2026-05-06 20:29 24.63734 53.94655 16006 ft 388 kts 114°
2026-05-06 20:30 24.62686 53.97321 15501 ft 384 kts 112°
2026-05-06 20:30 24.60647 54.02691 14445 ft 378 kts 112°
2026-05-06 20:30 24.59646 54.05350 13916 ft 375 kts 112°
2026-05-06 20:31 24.58656 54.07982 13389 ft 372 kts 112°
2026-05-06 20:31 24.57674 54.10597 12864 ft 369 kts 112°
2026-05-06 20:31 24.56696 54.13200 12339 ft 366 kts 112°
2026-05-06 20:31 24.55730 54.15769 11821 ft 362 kts 112°
2026-05-06 20:32 24.54771 54.18319 11303 ft 359 kts 112°
2026-05-06 20:32 24.53833 54.20812 11073 ft 347 kts 112°
2026-05-06 20:32 24.52933 54.23202 10955 ft 332 kts 112°
2026-05-06 20:32 24.52067 54.25500 10853 ft 318 kts 112°
2026-05-06 20:33 24.51235 54.27709 10734 ft 307 kts 112°
2026-05-06 20:33 24.50450 54.29791 10616 ft 297 kts 112°
2026-05-06 20:33 24.49702 54.31775 10511 ft 290 kts 112°
2026-05-06 20:33 24.48934 54.33813 10284 ft 288 kts 112°
2026-05-06 20:34 24.48209 54.35732 10015 ft 289 kts 112°
2026-05-06 20:34 24.47465 54.37700 9688 ft 290 kts 112°
2026-05-06 20:34 24.46714 54.39686 9363 ft 291 kts 112°
2026-05-06 20:34 24.45981 54.41626 9056 ft 291 kts 113°
2026-05-06 20:35 24.45238 54.43591 8737 ft 291 kts 113°
2026-05-06 20:35 24.44464 54.45637 8515 ft 286 kts 113°
2026-05-06 20:35 24.43727 54.47583 8396 ft 276 kts 113°
2026-05-06 20:35 24.43001 54.49503 8197 ft 271 kts 113°
2026-05-06 20:36 24.42252 54.51414 7870 ft 270 kts 117°
2026-05-06 20:36 24.41169 54.53008 7706 ft 262 kts 136°
2026-05-06 20:36 24.39846 54.54336 7576 ft 253 kts 139°
2026-05-06 20:36 24.38539 54.55583 7399 ft 248 kts 140°
2026-05-06 20:37 24.37242 54.56819 7132 ft 244 kts 140°
2026-05-06 20:37 24.35973 54.58031 6703 ft 241 kts 140°
2026-05-06 20:37 24.34736 54.59217 6229 ft 237 kts 140°
2026-05-06 20:37 24.33482 54.60422 5896 ft 238 kts 140°
2026-05-06 20:38 24.32268 54.61592 5716 ft 230 kts 139°
2026-05-06 20:38 24.31067 54.62747 5620 ft 223 kts 139°
2026-05-06 20:38 24.29938 54.63832 5526 ft 216 kts 139°
2026-05-06 20:38 24.28828 54.64900 5403 ft 208 kts 139°
2026-05-06 20:39 24.27738 54.65951 5203 ft 205 kts 139°
2026-05-06 20:39 24.26748 54.67034 4950 ft 204 kts 130°
2026-05-06 20:39 24.25962 54.68329 4743 ft 204 kts 117°
2026-05-06 20:39 24.25477 54.69801 4547 ft 203 kts 103°
2026-05-06 20:40 24.25327 54.71303 4303 ft 201 kts 89°
2026-05-06 20:40 24.25507 54.72821 4110 ft 197 kts 76°
2026-05-06 20:40 24.25985 54.74221 3969 ft 200 kts 63°
2026-05-06 20:40 24.26740 54.75486 3809 ft 199 kts 50°
2026-05-06 20:41 24.27741 54.76528 3624 ft 198 kts 37°
2026-05-06 20:41 24.28931 54.77293 3426 ft 199 kts 24°
2026-05-06 20:41 24.30244 54.77738 3209 ft 198 kts 10°
2026-05-06 20:41 24.31605 54.77831 3065 ft 193 kts 357°
2026-05-06 20:42 24.32877 54.77605 3031 ft 177 kts 346°
2026-05-06 20:42 24.33984 54.77147 2919 ft 164 kts 334°
2026-05-06 20:42 24.34911 54.76523 2721 ft 152 kts 323°
2026-05-06 20:42 24.35683 54.75775 2388 ft 145 kts 314°
2026-05-06 20:43 24.36328 54.74940 2075 ft 141 kts 308°
2026-05-06 20:43 24.36928 54.74102 1777 ft 139 kts 307°
2026-05-06 20:43 24.37516 54.73273 1460 ft 136 kts 307°
2026-05-06 20:43 24.38089 54.72455 1174 ft 133 kts 308°
2026-05-06 20:44 24.38629 54.71677 1000 ft 127 kts 308°
2026-05-06 20:44 24.39203 54.70931 866 ft 128 kts 306°
2026-05-06 20:44 24.39785 54.70169 789 ft 131 kts 308°
2026-05-06 20:44 24.40347 54.69386 681 ft 131 kts 307°
2026-05-06 20:45 24.40894 54.68588 570 ft 131 kts 307°
2026-05-06 20:45 24.41438 54.67791 407 ft 131 kts 306°
2026-05-06 20:45 24.41967 54.67012 247 ft 129 kts 307°
2026-05-06 20:45 24.42508 54.66238 106 ft 126 kts 301°
2026-05-06 20:46 24.42933 54.65637 84 ft 85 kts 307°
2026-05-06 20:46 24.43186 54.65279 87 ft 35 kts 308°
2026-05-06 20:46 24.43236 54.65208 84 ft 3 kts 308°
2026-05-06 20:46 24.43299 54.65127 86 ft 18 kts 310°
2026-05-06 20:47 24.43383 54.65019 87 ft 21 kts 310°
2026-05-06 20:47 24.43501 54.64922 83 ft 23 kts 333°
2026-05-06 20:47 24.43626 54.64861 88 ft 16 kts 337°
2026-05-06 20:47 24.43729 54.64807 84 ft 17 kts 327°
2026-05-06 20:48 24.43793 54.64764 81 ft 9 kts 342°
2026-05-06 20:48 24.43861 54.64783 80 ft 12 kts 30°
2026-05-06 20:48 24.43933 54.64841 84 ft 14 kts 38°
2026-05-06 20:48 24.44009 54.64906 84 ft 14 kts 38°
2026-05-06 20:49 24.44090 54.64976 85 ft 16 kts 38°
2026-05-06 20:49 24.44185 54.65058 85 ft 19 kts 38°
2026-05-06 20:49 24.44278 54.65138 81 ft 16 kts 38°
2026-05-06 20:49 24.44336 54.65168 84 ft 7 kts 360°
2026-05-06 20:50 24.44380 54.65139 86 ft 9 kts 313°
2026-05-06 20:50 24.44424 54.65079 86 ft 12 kts 308°
2026-05-06 20:50 24.44481 54.65000 84 ft 15 kts 308°
2026-05-06 20:50 24.44546 54.64910 84 ft 16 kts 308°
2026-05-06 20:51 24.44619 54.64809 86 ft 19 kts 308°
2026-05-06 20:51 24.44668 54.64742 84 ft 0 kts 307°
2026-05-06 20:51 24.44673 54.64735 80 ft 3 kts 307°
2026-05-06 20:51 24.44691 54.64709 83 ft 6 kts 307°
2026-05-06 20:52 24.44725 54.64662 86 ft 9 kts 311°
2026-05-06 20:52 24.44771 54.64607 85 ft 11 kts 313°
2026-05-06 20:52 24.44827 54.64542 84 ft 13 kts 312°
2026-05-06 20:52 24.44905 54.64485 81 ft 13 kts 353°
2026-05-06 20:53 24.44967 54.64501 81 ft 0 kts 16°
2026-05-06 20:53 24.44970 54.64502 82 ft 2 kts 16°
2026-05-06 20:53 24.44999 54.64509 83 ft 6 kts 11°
2026-05-06 20:53 24.45023 54.64514 79 ft 0 kts
2026-05-06 20:54 24.45031 54.64515 81 ft 0 kts